This is the latest recevied weather packets stored in our database for station/object SP2TMT-10. If no packets are shown the sender has not sent any weather packets the latest 10 day(s).
| Time | Temp. | Humidity | Pressure | Rain* | Wind** | Luminosity | Snow |
|---|---|---|---|---|---|---|---|
| 1777780673 | 21.11° C | 36% | 1016.4 hPa | - | - | - | - |
| 1777779772 | 21.11° C | 36% | 1016.5 hPa | - | - | - | - |
| 1777778872 | 21.11° C | 36% | 1016.5 hPa | - | - | - | - |
| 1777777972 | 21.11° C | 36% | 1016.4 hPa | - | - | - | - |
| 1777777072 | 21.11° C | 37% | 1016.5 hPa | - | - | - | - |
| 1777776172 | 21.11° C | 37% | 1016.4 hPa | - | - | - | - |
| 1777775272 | 21.11° C | 38% | 1016.5 hPa | - | - | - | - |
| 1777774372 | 21.11° C | 41% | 1016.5 hPa | - | - | - | - |
| 1777773472 | 21.11° C | 36% | 1016.7 hPa | - | - | - | - |
| 1777772567 | 21.11° C | 37% | 1016.7 hPa | - | - | - | - |
| 1777767166 | 21.11° C | 38% | 1017 hPa | - | - | - | - |
| 1777766266 | 21.11° C | 37% | 1017.1 hPa | - | - | - | - |
| 1777764466 | 21.11° C | 38% | 1017.3 hPa | - | - | - | - |
| 1777762666 | 21.11° C | 38% | 1017.4 hPa | - | - | - | - |
| 1777761765 | 21.11° C | 38% | 1017.4 hPa | - | - | - | - |
| 1777757260 | 21.67° C | 40% | 1017.7 hPa | - | - | - | - |
| 1777756360 | 21.67° C | 40% | 1017.7 hPa | - | - | - | - |
| 1777753659 | 21.67° C | 41% | 1017.9 hPa | - | - | - | - |
| 1777748259 | 21.67° C | 48% | 1018.1 hPa | - | - | - | - |
| 1777746459 | 22.22° C | 49% | 1017.9 hPa | - | - | - | - |
| 1777742853 | 26.67° C | 68% | 1017.9 hPa | - | - | - | - |
| 1777741053 | 21.11° C | 36% | 1018.1 hPa | - | - | - | - |
| 1777739253 | 21.11° C | 41% | 1018.5 hPa | - | - | - | - |
| 1777735652 | 21.11° C | 46% | 1019 hPa | - | - | - | - |
| 1777734752 | 21.11° C | 47% | 1019.3 hPa | - | - | - | - |
* Rain since midnight (hover to see other rain measurements)
** Current wind speed in m/s (hover to see current wind gust speed)